TimePDT,TemperatureF,Dew PointF,Humidity,Sea Level PressureIn,VisibilityMPH,Wind Direction,Wind SpeedMPH,Gust SpeedMPH,PrecipitationIn,Events,Conditions,WindDirDegrees,DateUTC
12:53 AM,69.1,24.1,18,29.93,10.0,Calm,Calm,-,N/A,,Clear,0,2013-04-20 07:53:00
1:53 AM,66.0,21.9,19,29.91,10.0,NNW,3.5,-,N/A,,Clear,330,2013-04-20 08:53:00
2:53 AM,62.1,27.0,26,29.89,10.0,Calm,Calm,-,N/A,,Clear,0,2013-04-20 09:53:00
3:53 AM,64.9,21.0,19,29.88,10.0,Calm,Calm,-,N/A,,Clear,0,2013-04-20 10:53:00
4:53 AM,66.0,18.0,16,29.87,10.0,NNW,8.1,-,N/A,,Clear,340,2013-04-20 11:53:00
5:53 AM,64.0,17.1,16,29.88,10.0,Calm,Calm,-,N/A,,Clear,0,2013-04-20 12:53:00
6:53 AM,64.9,21.9,19,29.90,10.0,NW,3.5,-,N/A,,Clear,320,2013-04-20 13:53:00
7:53 AM,70.0,19.9,15,29.92,10.0,Calm,Calm,-,N/A,,Clear,0,2013-04-20 14:53:00
8:53 AM,75.9,19.9,12,29.92,10.0,Calm,Calm,-,N/A,,Clear,0,2013-04-20 15:53:00
9:53 AM,81.0,21.9,11,29.92,10.0,SW,3.5,-,N/A,,Clear,220,2013-04-20 16:53:00
10:53 AM,84.9,21.9,10,29.92,10.0,East,6.9,-,N/A,,Clear,100,2013-04-20 17:53:00
11:53 AM,88.0,18.0,8,29.91,10.0,Variable,4.6,-,N/A,,Clear,0,2013-04-20 18:53:00
12:53 PM,91.0,18.0,7,29.89,10.0,ESE,6.9,-,N/A,,Clear,120,2013-04-20 19:53:00
1:53 PM,91.0,19.0,7,29.87,10.0,East,9.2,-,N/A,,Clear,100,2013-04-20 20:53:00
2:53 PM,91.0,19.0,7,29.85,10.0,Calm,Calm,-,N/A,,Clear,0,2013-04-20 21:53:00
3:53 PM,93.0,18.0,6,29.83,10.0,SE,4.6,-,N/A,,Clear,130,2013-04-20 22:53:00
4:53 PM,93.0,19.0,7,29.81,10.0,East,8.1,-,N/A,,Clear,90,2013-04-20 23:53:00
5:53 PM,91.9,19.9,7,29.81,10.0,ESE,6.9,-,N/A,,Clear,120,2013-04-21 00:53:00
6:53 PM,88.0,27.0,11,29.82,10.0,ESE,9.2,-,N/A,,Clear,120,2013-04-21 01:53:00
7:53 PM,84.9,28.0,13,29.84,10.0,Calm,Calm,-,N/A,,Clear,0,2013-04-21 02:53:00
8:53 PM,82.9,27.0,13,29.87,10.0,NNW,5.8,-,N/A,,Clear,330,2013-04-21 03:53:00
9:53 PM,81.0,30.0,16,29.89,10.0,Calm,Calm,-,N/A,,Clear,0,2013-04-21 04:53:00
10:53 PM,79.0,33.1,19,29.89,10.0,Calm,Calm,-,N/A,,Clear,0,2013-04-21 05:53:00
11:53 PM,77.0,34.0,21,29.90,10.0,WNW,5.8,-,N/A,,Clear,290,2013-04-21 06:53:00